• In Belarus
  • List of Countries
  • For 7 days
  • Water Temperature
  • Weather Map
  • Weather Widgets
  • user-avatar
    Login

    Hourly Weather Sozopol

    Today, 4 June, Thursday

    Time Temperature Precipitation Wind Pressure Humidity
    00:00 +11°C° 0.2 mm 3 mps 753 mmHg 89%
    01:00 +11°C° 0.2 mm 3 mps 753 mmHg 90%
    02:00 +11°C° 0 mm 3 mps 753 mmHg 90%
    03:00 +11°C° 0.1 mm 3 mps 753 mmHg 90%
    04:00 +12°C° 0.1 mm 2 mps 753 mmHg 90%
    05:00 +12°C° 0.1 mm 2 mps 753 mmHg 90%
    06:00 +14°C° 0 mm 2 mps 753 mmHg 86%
    07:00 +16°C° 0 mm 2 mps 753 mmHg 81%
    08:00 +18°C° 0 mm 2 mps 753 mmHg 77%
    09:00 +20°C° 0 mm 3 mps 754 mmHg 70%
    10:00 +21°C° 0 mm 3 mps 754 mmHg 63%
    11:00 +24°C° 0 mm 3 mps 754 mmHg 56%
    12:00 +24°C° 0 mm 3 mps 754 mmHg 55%
    13:00 +25°C° 0 mm 4 mps 754 mmHg 54%
    14:00 +25°C° 0 mm 4 mps 754 mmHg 53%
    15:00 +25°C° 0 mm 3 mps 754 mmHg 56%
    16:00 +25°C° 0 mm 3 mps 754 mmHg 59%
    17:00 +25°C° 0 mm 3 mps 754 mmHg 62%
    18:00 +24°C° 0 mm 3 mps 754 mmHg 67%
    19:00 +21°C° 0 mm 3 mps 754 mmHg 73%
    20:00 +19°C° 0 mm 4 mps 754 mmHg 79%
    21:00 +18°C° 0 mm 4 mps 754 mmHg 77%
    22:00 +18°C° 0 mm 4 mps 755 mmHg 76%
    23:00 +18°C° 0 mm 3 mps 755 mmHg 75%

    Tomorrow, 5 June, Friday

    Time Temperature Precipitation Wind Pressure Humidity
    00:00 +17°C° 0 mm 3 mps 755 mmHg 76%
    01:00 +17°C° 0 mm 3 mps 755 mmHg 77%
    02:00 +17°C° 0 mm 3 mps 755 mmHg 77%
    03:00 +17°C° 0 mm 3 mps 755 mmHg 79%
    04:00 +17°C° 0 mm 4 mps 755 mmHg 80%
    05:00 +15°C° 0 mm 4 mps 755 mmHg 82%
    06:00 +18°C° 0 mm 4 mps 755 mmHg 77%
    07:00 +20°C° 0 mm 5 mps 755 mmHg 72%
    08:00 +22°C° 0 mm 6 mps 755 mmHg 68%
    09:00 +23°C° 0 mm 6 mps 755 mmHg 64%
    10:00 +24°C° 0 mm 6 mps 755 mmHg 60%
    11:00 +26°C° 0 mm 7 mps 755 mmHg 56%
    12:00 +27°C° 0 mm 7 mps 755 mmHg 54%
    13:00 +27°C° 0 mm 7 mps 754 mmHg 53%
    14:00 +28°C° 0 mm 7 mps 754 mmHg 51%
    15:00 +27°C° 0 mm 7 mps 754 mmHg 53%
    16:00 +26°C° 0 mm 6 mps 754 mmHg 55%
    17:00 +26°C° 0 mm 6 mps 753 mmHg 57%
    18:00 +23°C° 0 mm 5 mps 754 mmHg 58%
    19:00 +21°C° 0 mm 4 mps 754 mmHg 59%
    20:00 +19°C° 0 mm 3 mps 754 mmHg 61%
    21:00 +19°C° 0 mm 3 mps 754 mmHg 63%
    22:00 +18°C° 0 mm 3 mps 754 mmHg 65%
    23:00 +17°C° 0 mm 3 mps 755 mmHg 67%

    Day after tomorrow, 6 June, Saturday

    Time Temperature Precipitation Wind Pressure Humidity
    00:00 +17°C° 0 mm 3 mps 754 mmHg 67%
    01:00 +17°C° 0 mm 3 mps 754 mmHg 68%
    02:00 +16°C° 0 mm 3 mps 754 mmHg 68%
    03:00 +16°C° 0 mm 3 mps 754 mmHg 69%
    04:00 +16°C° 0 mm 2 mps 754 mmHg 70%
    05:00 +16°C° 0 mm 2 mps 754 mmHg 71%
    06:00 +18°C° 0 mm 2 mps 754 mmHg 67%
    07:00 +21°C° 0 mm 1 mps 754 mmHg 63%
    08:00 +23°C° 0 mm 1 mps 754 mmHg 58%
    09:00 +25°C° 0 mm 1 mps 754 mmHg 53%
    10:00 +27°C° 0 mm 1 mps 754 mmHg 49%
    11:00 +28°C° 0 mm 2 mps 754 mmHg 44%
    12:00 +28°C° 0 mm 2 mps 754 mmHg 45%
    13:00 +28°C° 0 mm 2 mps 753 mmHg 47%
    14:00 +28°C° 0 mm 3 mps 753 mmHg 48%
    15:00 +27°C° 0.1 mm 3 mps 753 mmHg 53%
    16:00 +26°C° 0.1 mm 3 mps 753 mmHg 58%
    17:00 +25°C° 0.1 mm 3 mps 752 mmHg 63%
    18:00 +22°C° 0.1 mm 3 mps 752 mmHg 69%
    19:00 +20°C° 0.1 mm 3 mps 752 mmHg 75%
    20:00 +18°C° 0.1 mm 3 mps 752 mmHg 82%
    21:00 +18°C° 0 mm 2 mps 752 mmHg 82%
    22:00 +19°C° 0 mm 1 mps 753 mmHg 83%
    23:00 +18°C° 0 mm 1 mps 753 mmHg 83%

    7 June, Sunday

    Time Temperature Precipitation Wind Pressure Humidity
    00:00 +18°C° 0 mm 1 mps 752 mmHg 81%
    01:00 +17°C° 0 mm 2 mps 752 mmHg 79%
    02:00 +17°C° 0 mm 2 mps 752 mmHg 76%
    03:00 +17°C° 0 mm 2 mps 752 mmHg 80%
    04:00 +17°C° 0 mm 2 mps 752 mmHg 83%
    05:00 +16°C° 0 mm 2 mps 752 mmHg 87%
    06:00 +19°C° 0 mm 2 mps 752 mmHg 82%
    07:00 +21°C° 0 mm 2 mps 752 mmHg 78%
    08:00 +24°C° 0 mm 2 mps 753 mmHg 74%
    09:00 +25°C° 0 mm 2 mps 753 mmHg 70%
    10:00 +26°C° 0 mm 2 mps 753 mmHg 66%
    11:00 +27°C° 0 mm 2 mps 753 mmHg 62%
    12:00 +27°C° 0 mm 3 mps 753 mmHg 61%
    13:00 +28°C° 0 mm 3 mps 753 mmHg 61%
    14:00 +28°C° 0 mm 3 mps 752 mmHg 61%
    15:00 +28°C° 0.2 mm 3 mps 752 mmHg 64%
    16:00 +27°C° 0.2 mm 3 mps 752 mmHg 67%
    17:00 +27°C° 0.2 mm 3 mps 752 mmHg 71%
    18:00 +25°C° 0.1 mm 3 mps 752 mmHg 76%
    19:00 +24°C° 0.1 mm 2 mps 753 mmHg 80%
    20:00 +21°C° 0.1 mm 2 mps 753 mmHg 85%
    21:00 +20°C° 0 mm 2 mps 753 mmHg 85%
    22:00 +20°C° 0 mm 2 mps 753 mmHg 86%
    23:00 +19°C° 0 mm 2 mps 753 mmHg 86%

    8 June, Monday

    Time Temperature Precipitation Wind Pressure Humidity
    00:00 +19°C° 0 mm 2 mps 753 mmHg 86%
    01:00 +18°C° 0 mm 2 mps 753 mmHg 85%
    02:00 +18°C° 0 mm 2 mps 753 mmHg 85%
    03:00 +18°C° 0 mm 2 mps 753 mmHg 85%
    04:00 +18°C° 0 mm 2 mps 753 mmHg 85%
    05:00 +18°C° 0 mm 1 mps 753 mmHg 86%
    06:00 +19°C° 0 mm 2 mps 753 mmHg 80%
    07:00 +23°C° 0 mm 2 mps 753 mmHg 75%
    08:00 +25°C° 0 mm 2 mps 754 mmHg 69%
    09:00 +26°C° 0 mm 2 mps 754 mmHg 65%
    10:00 +27°C° 0 mm 1 mps 754 mmHg 60%
    11:00 +29°C° 0 mm 1 mps 754 mmHg 55%
    12:00 +29°C° 0.1 mm 1 mps 754 mmHg 55%
    13:00 +29°C° 0.1 mm 2 mps 753 mmHg 55%
    14:00 +29°C° 0.1 mm 3 mps 753 mmHg 55%
    15:00 +28°C° 0.1 mm 3 mps 753 mmHg 58%
    16:00 +27°C° 0.1 mm 3 mps 753 mmHg 61%
    17:00 +27°C° 0.1 mm 3 mps 753 mmHg 65%
    18:00 +25°C° 0 mm 3 mps 753 mmHg 69%
    19:00 +23°C° 0 mm 2 mps 753 mmHg 73%
    20:00 +21°C° 0 mm 2 mps 753 mmHg 77%
    21:00 +20°C° 0 mm 2 mps 753 mmHg 78%
    22:00 +20°C° 0 mm 2 mps 753 mmHg 79%
    23:00 +20°C° 0 mm 2 mps 753 mmHg 80%

    9 June, Tuesday

    Time Temperature Precipitation Wind Pressure Humidity
    00:00 +20°C° 0 mm 1 mps 753 mmHg 81%
    01:00 +20°C° 0 mm 1 mps 753 mmHg 81%
    02:00 +20°C° 0 mm 1 mps 753 mmHg 81%
    03:00 +20°C° 0 mm 1 mps 753 mmHg 83%
    04:00 +20°C° 0 mm 1 mps 753 mmHg 84%
    05:00 +19°C° 0 mm 1 mps 753 mmHg 85%
    06:00 +21°C° 0 mm 1 mps 753 mmHg 80%
    07:00 +23°C° 0 mm 1 mps 754 mmHg 75%
    08:00 +25°C° 0 mm 1 mps 754 mmHg 69%
    09:00 +26°C° 0.2 mm 2 mps 754 mmHg 66%
    10:00 +27°C° 0.2 mm 2 mps 754 mmHg 63%
    11:00 +28°C° 0.2 mm 3 mps 754 mmHg 59%
    12:00 +29°C° 0.5 mm 3 mps 754 mmHg 59%
    13:00 +29°C° 0.5 mm 3 mps 754 mmHg 59%
    14:00 +29°C° 0.5 mm 4 mps 753 mmHg 59%
    15:00 +28°C° 0.4 mm 4 mps 753 mmHg 63%
    16:00 +27°C° 0.4 mm 4 mps 753 mmHg 67%
    17:00 +26°C° 0.4 mm 3 mps 753 mmHg 71%
    18:00 +25°C° 0.1 mm 3 mps 753 mmHg 75%
    19:00 +22°C° 0.1 mm 3 mps 753 mmHg 79%
    20:00 +20°C° 0.1 mm 3 mps 753 mmHg 83%
    21:00 +20°C° 0.5 mm 3 mps 753 mmHg 85%
    22:00 +19°C° 0.5 mm 2 mps 754 mmHg 87%
    23:00 +19°C° 0.5 mm 2 mps 754 mmHg 89%
    Show more